Tracking 19846 objects as of 19-Sep-2019
HD Live streaming from Space Station
objects crossing your sky now

COSMOS 1375 DEB

Track COSMOS 1375 DEB now!
10-day predictions


NORAD ID: 17797
Int'l Code: 1982-055AP
Perigee: 937.6 km
Apogee: 952.8 km
Inclination: 65.8 °
Period: 103.8 minutes
Semi major axis: 7316 km
RCS: 0.0324 m2 (small)
Launch date: June 6, 1982
Source: Commonwealth of Independent States (former USSR) (CIS)
Launch site: PLESETSK MISSILE AND SPACE COMPLEX (PKMTR)

Note: This is SATELLITE DEBRIS
aabbcc
Your satellite tracking list
Your tracking list is empty




NASA's NSSDC Master Catalog

Two Line Element Set (TLE):
1 17797U 82055AP  19261.84427282 +.00000079 +00000-0 +13743-3 0  9994
2 17797 065.8289 043.4736 0010389 322.3152 113.3970 13.87307725709796
Source of the keplerian elements: AFSPC